Location: McFarlands Corners
(41.4117°N, 81.3382°W)
Time: 20:01:38
(UTC+00:00)

BlueWalker 3 - Pass Details

Date: 26 January 2026
Orbit: 450 x 461 km, 53.2° (Epoch: 11 February)

Event Time Altitude Azimuth Distance (km) Brightness Sun altitude
Rises 23:52:19 0° 276° (W) 2,454 6.9 -14.7°
Reaches altitude 10° 23:54:57 10° 297° (WNW) 1,582 5.2 -15.2°
Maximum altitude 23:57:28 18° 342° (NNW) 1,183 3.9 -15.7°
Enters shadow 23:59:11 13° 16° (NNE) 1,384 3.9 -16.0°
